sat.trackr.live / text

‹ back to catalog

STARLINK-11557 [DTC]

NORAD 62837 · 2025-019J

PAYLOAD ACTIVE UNKNOWN

§ Identity

Operator
Country
US
Launch date
2025-01-27
Launch site
AFETR
Launch vehicle
Mass (kg)
RCS (m²)

Purposes: comms

External: N2YO · Heavens-Above · Gunter

§ Orbital elements

Epoch: 2026-09-21T05:11:26.979936Z

Period
91.67 min
Inclination
43.0029°
Eccentricity
0.0001717
Mean motion
15.70875005 rev/d
Perigee alt
355.2 km
Apogee alt
357.6 km
Semi-major
6,734.5 km
B*
1.0651e-3
RAAN
207.2632°
Arg perigee
287.7552°
Mean anomaly
72.3128°
Rev number
9,463

§ Raw data

STARLINK-11557 [DTC]1 62837U 25019J   26264.21628449  .00138725  00000+0  10651-2 0  99992 62837  43.0029 207.2632 0001717 287.7552  72.3128 15.70875005 94633

JSON: /api/v1/satellites/62837 · /tle

For live sub-satellite position, see the globe view (requires WebGL).

§ Visibility from observer

Set your observer location to see the next 7 days of passes ≥ 10°. The values pass through the URL so the page stays shareable.

No JS? Fill the form by hand. The geolocation button needs JavaScript.